Regional Weather Roundup
Issued by NWS Sioux Falls, SD

Home | Current Version | Previous Version | Text Only | Print | Product List | Glossary On
Versions: 1 2 3 4 5 6 7 8 9 10 11 12 13 14 15 16 17 18 19 20 21 22 23 24 25 26 27 28 29 30 31 32 33 34 35 36 37 38 39 40 41 42 43 44 45 46 47 48 49 50
000
ASUS43 KFSD 020510
RWRFSD

WEATHER ROUNDUP FOR SE SOUTH DAKOTA/SW MINNESOTA/NW IOWA
NATIONAL WEATHER SERVICE SIOUX FALLS SD
1200 AM CDT THU APR 02 2015

NOTE: "FAIR" INDICATES FEW OR NO CLOUDS BELOW 12,000 FEET WITH NO
SIGNIFICANT WEATHER AND OR OBSTRUCTIONS TO VISIBILITY.


SDZ038>040-050-052>070-020600-
SOUTHEAST SOUTH DAKOTA

CITY           SKY/WX    TMP DP  RH WIND       PRES   REMARKS
BROOKINGS      PTCLDY    50  32  50 N9        29.72R
CHAMBERLAIN    MOCLDY    49  24  38 N3        29.79R
HURON          PTCLDY    46  28  49 NW9       29.74R
MADISON        FAIR      52  28  40 N16       29.73R
MITCHELL       CLOUDY    53  28  38 NW15      29.75R
SIOUX FALLS    CLOUDY    57  29  34 N21       29.74R
WINNER         FAIR      49  19  30 NW7       29.80R
YANKTON        CLOUDY    57  28  33 N13       29.78R
$$

MNZ071-072-080-081-089-090-097-098-020600-
SOUTHWEST MINNESOTA

CITY           SKY/WX    TMP DP  RH WIND       PRES   REMARKS
FAIRMONT       CLOUDY    55  46  71 CALM      29.67R
JACKSON        CLOUDY    54  43  66 CALM      29.70R
LUVERNE        CLOUDY    54  37  54 NW7       29.73R
MARSHALL       CLOUDY    55  30  38 NW16      29.69R
MONTEVIDEO     MOCLDY    54  36  50 N17       29.65R
PIPESTONE      MOCLDY    54  30  40 N14       29.71R
REDWOOD FALLS  CLOUDY    56  35  45 NW14G21   29.65R
TRACY          CLOUDY    56  34  43 NW12G17   29.68R
WORTHINGTON    CLOUDY    52  41  66 NW12      29.72R
$$

IAZ001>003-012>014-020>022-031-032-NEZ013-014-SDZ071-020600-
NORTHWEST IOWA

CITY           SKY/WX    TMP DP  RH WIND       PRES   REMARKS
CHEROKEE       CLOUDY    54  54 100 N5        29.69R
DENISON        CLOUDY    55  55 100 W7        29.70R FOG
ESTHERVILLE    CLOUDY    53  50  89 SE3       29.69R
LE MARS        CLOUDY    55  45  67 NW12      29.72R
ORANGE CITY    CLOUDY    57  45  62 N8        29.72R
SHELDON        CLOUDY    52  46  82 NW6       29.71R
SIOUX CITY     CLOUDY    59  45  59 NW14      29.72R
SPENCER          N/A     52  49  89 SW6       29.72R
STORM LAKE     LGT RAIN  55  52  88 NW7       29.69R
$$

ABBREVIATIONS USED IN REMARKS
   TC - TEMPERATURE IN CELSIUS
  WCI - WIND CHILL INDEX
   HX - HEAT INDEX
  VSB - VISIBILITY




USA.gov is the U.S. government's official web portal to all federal, state and local government web resources and services.